Flag for Germany Weather past 2 weeks in Schwerin, Mecklenburg-Western Pomerania, Germany

Now
38 °F

Overcast.


Feels Like: 34 °F
Forecast: 35 / 43 °F
Wind: 5 mph from Southwest

Location: Schwerin

Current Time: Mar 31, 2015 at 6:21:42 AM

Latest Report: Mar 31, 2015 at 4:00 AM


Visibility: 17 mi

Pressure: 29.38 "Hg

Humidity: 77%

Dew point: 31 °F

Location of SchwerinLocation

Historic Weather in Schwerin — Graph

°F

Schwerin temperature yesterday

Maximum temperature yesterday: 48 °F (at 12:00 AM)
Minimum temperature yesterday: 39 °F (at 10:00 AM)
Average temperature yesterday: 42 °F

Past Weeks' High & Low Weather Summary

 TemperatureHumidityPressure
High59 °F (Mar 17, 3:00 PM)98% (Mar 21, 12:00 PM)30.48 "Hg (Mar 21, 12:00 PM)
Low29 °F (Mar 23, 6:00 AM)22% (Mar 19, 3:00 PM)28.91 "Hg (Mar 30, 12:00 AM)
Average43 °F73%29.99 "Hg
* Reported Mar 16 3:00 AM — Mar 31 4:00 AM, Schwerin, Weather by CustomWeather, © 2015

Note: Actual official high and low records may vary slightly from our data, if they occured in-between our weather recording intervals... More about our weather records

Advertising

Schwerin weather history for previous 24 hours

 ConditionsComfort  
Time TempWeatherWind HumidityBarometerVisibility
4:00 AM
Tue, Mar 31
38 °FOvercast.5 mph77%29.38 "Hg17 mi
3:00 AM38 °FOvercast.6 mph80%29.47 "Hg15 mi
2:00 AM38 °FOvercast.7 mph79%29.54 "Hg12 mi
1:00 AM38 °FPassing clouds.6 mph79%29.56 "Hg14 mi
12:00 AM38 °FPassing clouds.8 mph77%29.59 "Hg14 mi
10:00 PM
Mon, Mar 30
40 °FPassing clouds.10 mph74%29.59 "Hg13 mi
9:00 PM41 °FOvercast.12 mph70%29.58 "Hg17 mi
8:00 PM41 °FPassing clouds.10 mph77%29.55 "Hg16 mi
7:00 PM41 °FOvercast.13 mph76%29.50 "Hg16 mi
6:00 PM41 °FPartly sunny.10 mph83%29.47 "Hg22 mi
4:00 PM44 °FPartly sunny.12 mph80%29.38 "Hg14 mi
3:00 PM43 °FOvercast.12 mph80%29.32 "Hg22 mi
2:00 PM40 °FOvercast.9 mph90%29.29 "Hg17 mi
1:00 PM44 °FOvercast.9 mph80%29.23 "Hg28 mi
12:00 PM42 °FDrizzle. Overcast.9 mph87%29.21 "Hg28 mi
10:00 AM39 °FLight freezing rain. Overcast.10 mph91%29.18 "Hg7 mi
9:00 AM40 °FOvercast.10 mph88%29.15 "Hg31 mi
8:00 AM41 °FOvercast.10 mph83%29.15 "Hg22 mi
7:00 AM41 °FOvercast.10 mph83%29.12 "Hg19 mi
6:00 AM41 °FOvercast.9 mph85%29.12 "Hg31 mi
Weather by CustomWeather, © 2015

See weather overviewHow to use our weather pages